Estación Meteorológica Peña el Pijo (Robertgarden) [ 07/15/20 06:40:50 CEST ]

Fecha Hora Presion(HPa) Temp (°C) Humedad % Rocio (°C) Viento ( m/s) Direccion Lluvia 1Hora(mm) Lluvia 24H(mm) LLuvia Total(mm)
2020-Jan-12 01:09:12 1017.700 - - - - NNE     39.88
2020-Jan-12 02:12:56 1017.500 - - - - NNE     39.88
2020-Jan-12 03:09:19 1017.700 - - - - NNE     39.88
2020-Jan-12 04:09:02 1017.500 - - - - NNE     39.88
2020-Jan-12 05:09:17 1017.000 - - - - NNE     39.88
2020-Jan-12 06:09:21 1016.900 - - - - NNE     39.88
2020-Jan-12 07:09:01 1016.900 - - - - NNE     39.88
2020-Jan-12 08:09:25 1017.000 - - - - NNE     39.88
2020-Jan-12 09:09:16 1017.200 - - - - NNE     39.88
2020-Jan-12 10:09:24 1017.500 - - - - NNE     39.88
2020-Jan-12 11:08:57 1017.600 - - - - NNE     39.88
2020-Jan-12 12:01:38 1017.100 11.8 49 1.4         39.88
2020-Jan-12 13:01:54 1016.200 14.0 38 -0.2         39.88
2020-Jan-12 14:01:47 1015.400 13.8 31 -3.1         39.88
2020-Jan-12 15:01:42 1014.900 13.5 31 -3.4         39.88
2020-Jan-12 16:09:11 1014.900 - - - - N     39.88
2020-Jan-12 17:09:25 1015.200 - - - - N     39.88
2020-Jan-12 18:09:15 1015.500 - - - - N     39.88
2020-Jan-12 19:01:48 1016.000 4.4 50 -5.1         39.88
2020-Jan-12 20:01:51 1016.600 1.6 57 -6.0         39.88
2020-Jan-12 21:01:46 1016.700 0.1 63 -6.1         39.88
2020-Jan-12 22:01:46 1017.000 -1.3 66 -6.9         39.88
2020-Jan-12 23:01:54 1016.900 -2.1 70 -6.8         39.88

Temperatura Máxima:14°    Temperatura Mínima:-2°
Presión Máxima:1017.700 Hpa    Presión Mínima:1014.900 Hpa


Volver